Time,TemperatureF,DewpointF,PressureIn,WindDirection,WindDirectionDegrees,WindSpeedMPH,WindSpeedGustMPH,Humidity,HourlyPrecipIn,Conditions,Clouds,dailyrainin,SoftwareType,DateUTC
2013-12-29 00:00:00,39.9,35.5,29.95,WNW,296,0.0,0.0,84,0.00,,,0.00,Wunderground v.1.15,2013-12-29 06:00:00,
2013-12-29 00:06:00,40.1,35.7,29.95,SSW,198,0.0,0.0,84,0.00,,,0.00,Wunderground v.1.15,2013-12-29 06:06:00,
2013-12-29 00:11:00,40.3,35.5,29.95,SE,127,0.0,0.0,83,0.00,,,0.00,Wunderground v.1.15,2013-12-29 06:11:00,
2013-12-29 00:16:00,40.9,35.5,29.94,WSW,257,1.0,2.0,81,0.00,,,0.00,Wunderground v.1.15,2013-12-29 06:16:00,
2013-12-29 00:21:00,41.6,35.6,29.94,SW,225,2.0,5.0,79,0.00,,,0.00,Wunderground v.1.15,2013-12-29 06:21:00,
2013-12-29 00:27:00,42.1,35.7,29.94,WNW,288,2.0,5.0,78,0.00,,,0.00,Wunderground v.1.15,2013-12-29 06:27:00,
2013-12-29 00:32:00,42.2,35.8,29.93,SW,221,1.0,2.0,78,0.00,,,0.00,Wunderground v.1.15,2013-12-29 06:32:00,
2013-12-29 00:37:00,42.1,35.7,29.93,ESE,105,1.0,6.0,78,0.00,,,0.00,Wunderground v.1.15,2013-12-29 06:37:00,
2013-12-29 00:43:00,42.0,35.6,29.94,South,183,1.0,5.0,78,0.00,,,0.00,Wunderground v.1.15,2013-12-29 06:43:00,
2013-12-29 00:48:00,42.0,35.6,29.94,SSE,165,2.0,5.0,78,0.00,,,0.00,Wunderground v.1.15,2013-12-29 06:48:00,
2013-12-29 00:53:00,42.0,36.0,29.93,SSW,210,2.0,5.0,79,0.00,,,0.00,Wunderground v.1.15,2013-12-29 06:53:00,
2013-12-29 00:58:00,42.1,36.1,29.93,SSE,153,1.0,5.0,79,0.00,,,0.00,Wunderground v.1.15,2013-12-29 06:58:00,
2013-12-29 01:04:00,42.1,36.4,29.93,West,274,1.0,1.0,80,0.00,,,0.00,Wunderground v.1.15,2013-12-29 07:04:00,
2013-12-29 01:09:00,42.1,36.4,29.94,WSW,255,1.0,1.0,80,0.00,,,0.00,Wunderground v.1.15,2013-12-29 07:09:00,
2013-12-29 01:15:00,42.1,36.4,29.94,SSE,148,1.0,5.0,80,0.00,,,0.00,Wunderground v.1.15,2013-12-29 07:15:00,
2013-12-29 01:20:00,42.0,36.6,29.94,SE,134,1.0,1.0,81,0.00,,,0.00,Wunderground v.1.15,2013-12-29 07:20:00,
2013-12-29 01:25:00,41.9,36.5,29.94,West,271,1.0,3.0,81,0.00,,,0.00,Wunderground v.1.15,2013-12-29 07:25:00,
2013-12-29 01:30:00,42.0,36.6,29.93,WSW,241,1.0,1.0,81,0.00,,,0.00,Wunderground v.1.15,2013-12-29 07:30:00,
2013-12-29 01:35:00,41.9,36.5,29.93,South,188,1.0,3.0,81,0.00,,,0.00,Wunderground v.1.15,2013-12-29 07:35:00,
2013-12-29 01:41:00,41.8,36.4,29.94,WSW,249,1.0,2.0,81,0.00,,,0.00,Wunderground v.1.15,2013-12-29 07:41:00,
2013-12-29 01:46:00,41.7,36.3,29.94,WSW,245,1.0,2.0,81,0.00,,,0.00,Wunderground v.1.15,2013-12-29 07:46:00,
2013-12-29 01:51:00,41.6,36.2,29.94,WSW,243,1.0,1.0,81,0.00,,,0.00,Wunderground v.1.15,2013-12-29 07:51:00,
2013-12-29 01:57:00,41.5,36.4,29.94,SE,140,0.0,2.0,82,0.00,,,0.00,Wunderground v.1.15,2013-12-29 07:57:00,
2013-12-29 02:03:00,41.3,36.2,29.94,SW,224,0.0,0.0,82,0.00,,,0.00,Wunderground v.1.15,2013-12-29 08:03:00,
2013-12-29 02:08:00,41.1,36.3,29.94,WSW,256,0.0,1.0,83,0.00,,,0.00,Wunderground v.1.15,2013-12-29 08:08:00,
2013-12-29 02:13:00,41.0,36.2,29.94,WSW,238,0.0,0.0,83,0.00,,,0.00,Wunderground v.1.15,2013-12-29 08:13:00,
2013-12-29 02:18:00,40.8,36.3,29.94,WSW,248,0.0,0.0,84,0.00,,,0.00,Wunderground v.1.15,2013-12-29 08:18:00,
2013-12-29 02:23:00,40.7,36.2,29.94,West,278,0.0,0.0,84,0.00,,,0.00,Wunderground v.1.15,2013-12-29 08:23:00,
2013-12-29 02:29:00,40.6,36.1,29.94,East,97,0.0,1.0,84,0.00,,,0.00,Wunderground v.1.15,2013-12-29 08:29:00,
2013-12-29 02:34:00,40.6,36.1,29.94,SE,141,0.0,0.0,84,0.00,,,0.00,Wunderground v.1.15,2013-12-29 08:34:00,
2013-12-29 02:39:00,40.4,35.9,29.94,SE,132,0.0,0.0,84,0.00,,,0.00,Wunderground v.1.15,2013-12-29 08:39:00,
2013-12-29 02:45:00,40.2,36.1,29.94,SSW,193,0.0,1.0,85,0.00,,,0.00,Wunderground v.1.15,2013-12-29 08:45:00,
2013-12-29 02:50:00,40.2,36.1,29.93,SW,217,0.0,2.0,85,0.00,,,0.00,Wunderground v.1.15,2013-12-29 08:50:00,
2013-12-29 02:55:00,40.4,36.2,29.93,WSW,255,0.0,2.0,85,0.00,,,0.00,Wunderground v.1.15,2013-12-29 08:55:00,
2013-12-29 03:00:00,40.7,36.5,29.93,West,267,1.0,1.0,85,0.00,,,0.00,Wunderground v.1.15,2013-12-29 09:00:00,
2013-12-29 03:06:00,40.8,36.6,29.93,South,174,1.0,3.0,85,0.00,,,0.00,Wunderground v.1.15,2013-12-29 09:06:00,
2013-12-29 03:11:00,40.9,36.7,29.93,WSW,256,1.0,1.0,85,0.00,,,0.00,Wunderground v.1.15,2013-12-29 09:11:00,
2013-12-29 03:17:00,40.9,36.7,29.93,West,276,1.0,3.0,85,0.00,,,0.00,Wunderground v.1.15,2013-12-29 09:17:00,
2013-12-29 03:22:00,40.9,36.7,29.93,West,270,1.0,1.0,85,0.00,,,0.00,Wunderground v.1.15,2013-12-29 09:22:00,
2013-12-29 03:27:00,40.9,37.0,29.93,SE,135,0.0,1.0,86,0.00,,,0.01,Wunderground v.1.15,2013-12-29 09:27:00,
2013-12-29 03:33:00,40.9,37.3,29.92,WSW,253,1.0,2.0,87,0.00,,,0.01,Wunderground v.1.15,2013-12-29 09:33:00,
2013-12-29 03:38:00,40.8,37.2,29.93,West,272,1.0,2.0,87,0.00,,,0.01,Wunderground v.1.15,2013-12-29 09:38:00,
2013-12-29 03:43:00,40.8,37.2,29.93,NNE,18,1.0,1.0,87,0.00,,,0.01,Wunderground v.1.15,2013-12-29 09:43:00,
2013-12-29 03:49:00,40.6,37.3,29.92,SW,231,1.0,3.0,88,0.00,,,0.01,Wunderground v.1.15,2013-12-29 09:49:00,
2013-12-29 03:54:00,40.6,37.3,29.92,SSE,149,1.0,1.0,88,0.00,,,0.01,Wunderground v.1.15,2013-12-29 09:54:00,
2013-12-29 03:59:00,40.5,37.2,29.92,WSW,249,1.0,1.0,88,0.00,,,0.01,Wunderground v.1.15,2013-12-29 09:59:00,
2013-12-29 04:05:00,40.4,37.1,29.91,SE,138,0.0,1.0,88,0.00,,,0.01,Wunderground v.1.15,2013-12-29 10:05:00,
2013-12-29 04:10:00,40.4,37.4,29.91,SSW,198,0.0,0.0,89,0.00,,,0.01,Wunderground v.1.15,2013-12-29 10:10:00,
2013-12-29 04:16:00,40.2,37.2,29.91,SSW,195,0.0,1.0,89,0.00,,,0.01,Wunderground v.1.15,2013-12-29 10:16:00,
2013-12-29 04:21:00,40.1,37.4,29.90,SE,134,0.0,0.0,90,0.00,,,0.01,Wunderground v.1.15,2013-12-29 10:21:00,
2013-12-29 04:26:00,40.0,37.3,29.89,ESE,112,0.0,0.0,90,0.00,,,0.01,Wunderground v.1.15,2013-12-29 10:26:00,
2013-12-29 04:31:00,39.7,37.0,29.89,ESE,108,0.0,1.0,90,0.00,,,0.01,Wunderground v.1.15,2013-12-29 10:31:00,
2013-12-29 04:36:00,39.4,37.0,29.89,ESE,108,0.0,1.0,91,0.00,,,0.01,Wunderground v.1.15,2013-12-29 10:36:00,
2013-12-29 04:42:00,39.1,36.7,29.89,ESE,108,0.0,0.0,91,0.00,,,0.01,Wunderground v.1.15,2013-12-29 10:42:00,
2013-12-29 04:47:00,38.9,36.5,29.89,ESE,108,0.0,0.0,91,0.00,,,0.01,Wunderground v.1.15,2013-12-29 10:47:00,
2013-12-29 04:52:00,38.8,36.7,29.89,ESE,107,0.0,0.0,92,0.00,,,0.01,Wunderground v.1.15,2013-12-29 10:52:00,
2013-12-29 04:57:00,38.7,36.6,29.89,ESE,107,0.0,0.0,92,0.00,,,0.01,Wunderground v.1.15,2013-12-29 10:57:00,
2013-12-29 05:03:00,38.5,36.4,29.89,SSE,148,0.0,1.0,92,0.00,,,0.01,Wunderground v.1.15,2013-12-29 11:03:00,
2013-12-29 05:08:00,38.4,36.6,29.89,SSW,211,0.0,1.0,93,0.00,,,0.01,Wunderground v.1.15,2013-12-29 11:08:00,
2013-12-29 05:13:00,38.3,36.5,29.88,SW,225,0.0,0.0,93,0.00,,,0.01,Wunderground v.1.15,2013-12-29 11:13:00,
2013-12-29 05:18:00,38.3,36.5,29.88,SE,136,0.0,0.0,93,0.00,,,0.01,Wunderground v.1.15,2013-12-29 11:18:00,
2013-12-29 05:24:00,38.2,36.4,29.88,SE,139,0.0,1.0,93,0.00,,,0.01,Wunderground v.1.15,2013-12-29 11:24:00,
2013-12-29 05:29:00,38.2,36.4,29.88,SE,139,0.0,1.0,93,0.00,,,0.01,Wunderground v.1.15,2013-12-29 11:29:00,
2013-12-29 05:34:00,38.2,36.4,29.88,West,281,0.0,0.0,93,0.00,,,0.01,Wunderground v.1.15,2013-12-29 11:34:00,
2013-12-29 05:40:00,38.3,36.7,29.88,SE,140,0.0,0.0,94,0.00,,,0.01,Wunderground v.1.15,2013-12-29 11:40:00,
2013-12-29 05:45:00,38.4,36.8,29.88,South,188,0.0,0.0,94,0.00,,,0.01,Wunderground v.1.15,2013-12-29 11:45:00,
2013-12-29 05:50:00,38.5,36.9,29.88,SW,232,0.0,0.0,94,0.00,,,0.01,Wunderground v.1.15,2013-12-29 11:50:00,
2013-12-29 05:55:00,38.6,37.0,29.88,SW,232,0.0,0.0,94,0.00,,,0.01,Wunderground v.1.15,2013-12-29 11:55:00,
2013-12-29 06:00:00,38.6,37.0,29.88,SW,232,0.0,0.0,94,0.00,,,0.01,Wunderground v.1.15,2013-12-29 12:00:00,
2013-12-29 06:06:00,38.6,36.8,29.88,SW,232,0.0,0.0,93,0.00,,,0.01,Wunderground v.1.15,2013-12-29 12:06:00,
2013-12-29 06:12:00,38.5,36.7,29.88,SE,134,0.0,0.0,93,0.00,,,0.01,Wunderground v.1.15,2013-12-29 12:12:00,
2013-12-29 06:17:00,38.5,36.7,29.88,ESE,104,0.0,0.0,93,0.00,,,0.01,Wunderground v.1.15,2013-12-29 12:17:00,
2013-12-29 06:22:00,38.5,36.9,29.88,ESE,121,0.0,0.0,94,0.00,,,0.01,Wunderground v.1.15,2013-12-29 12:22:00,
2013-12-29 06:28:00,38.4,36.8,29.88,SSW,210,0.0,0.0,94,0.00,,,0.01,Wunderground v.1.15,2013-12-29 12:28:00,
2013-12-29 06:33:00,38.4,36.8,29.88,SSW,205,0.0,0.0,94,0.00,,,0.01,Wunderground v.1.15,2013-12-29 12:33:00,
2013-12-29 06:38:00,38.4,36.8,29.89,SSW,200,0.0,0.0,94,0.00,,,0.01,Wunderground v.1.15,2013-12-29 12:38:00,
2013-12-29 06:43:00,38.4,36.8,29.89,WSW,255,0.0,0.0,94,0.00,,,0.01,Wunderground v.1.15,2013-12-29 12:43:00,
2013-12-29 06:48:00,38.3,36.7,29.89,SSW,208,0.0,0.0,94,0.00,,,0.01,Wunderground v.1.15,2013-12-29 12:48:00,
2013-12-29 06:54:00,38.2,36.6,29.89,SW,232,0.0,1.0,94,0.00,,,0.01,Wunderground v.1.15,2013-12-29 12:54:00,
2013-12-29 06:59:00,38.1,36.5,29.89,South,178,0.0,1.0,94,0.00,,,0.01,Wunderground v.1.15,2013-12-29 12:59:00,
2013-12-29 07:05:00,38.0,36.4,29.90,SSE,158,0.0,0.0,94,0.00,,,0.01,Wunderground v.1.15,2013-12-29 13:05:00,
2013-12-29 07:10:00,38.0,36.4,29.90,SW,236,0.0,0.0,94,0.00,,,0.01,Wunderground v.1.15,2013-12-29 13:10:00,
2013-12-29 07:15:00,38.0,36.4,29.90,SW,236,0.0,0.0,94,0.00,,,0.01,Wunderground v.1.15,2013-12-29 13:15:00,
2013-12-29 07:20:00,37.8,36.2,29.90,SW,235,0.0,0.0,94,0.00,,,0.01,Wunderground v.1.15,2013-12-29 13:20:00,
2013-12-29 07:26:00,37.8,36.2,29.90,SSE,155,0.0,0.0,94,0.00,,,0.01,Wunderground v.1.15,2013-12-29 13:26:00,
2013-12-29 07:31:00,37.7,36.1,29.90,SSE,155,0.0,0.0,94,0.00,,,0.01,Wunderground v.1.15,2013-12-29 13:31:00,
2013-12-29 07:36:00,37.7,36.1,29.90,SSE,155,0.0,0.0,94,0.00,,,0.01,Wunderground v.1.15,2013-12-29 13:36:00,
2013-12-29 07:41:00,37.7,36.1,29.90,SW,236,0.0,0.0,94,0.00,,,0.01,Wunderground v.1.15,2013-12-29 13:41:00,
2013-12-29 07:47:00,38.1,36.8,29.90,West,277,0.0,1.0,95,0.00,,,0.01,Wunderground v.1.15,2013-12-29 13:47:00,
2013-12-29 07:52:00,38.5,36.9,29.90,WSW,240,1.0,2.0,94,0.00,,,0.01,Wunderground v.1.15,2013-12-29 13:52:00,
2013-12-29 07:57:00,38.7,37.1,29.90,SSW,197,0.0,2.0,94,0.00,,,0.01,Wunderground v.1.15,2013-12-29 13:57:00,
2013-12-29 08:03:00,38.9,37.0,29.90,West,276,0.0,2.0,93,0.00,,,0.01,Wunderground v.1.15,2013-12-29 14:03:00,
2013-12-29 08:08:00,39.1,37.2,29.90,West,271,1.0,2.0,93,0.00,,,0.01,Wunderground v.1.15,2013-12-29 14:08:00,
2013-12-29 08:14:00,39.4,37.3,29.91,WSW,240,1.0,2.0,92,0.00,,,0.01,Wunderground v.1.15,2013-12-29 14:14:00,
2013-12-29 08:19:00,39.6,37.5,29.91,West,267,1.0,3.0,92,0.00,,,0.01,Wunderground v.1.15,2013-12-29 14:19:00,
2013-12-29 08:24:00,40.0,37.6,29.91,South,190,2.0,4.0,91,0.00,,,0.01,Wunderground v.1.15,2013-12-29 14:24:00,
2013-12-29 08:30:00,40.3,37.6,29.91,West,262,2.0,2.0,90,0.00,,,0.01,Wunderground v.1.15,2013-12-29 14:30:00,
2013-12-29 08:35:00,40.6,37.9,29.92,West,272,2.0,4.0,90,0.00,,,0.01,Wunderground v.1.15,2013-12-29 14:35:00,
2013-12-29 08:40:00,40.9,37.9,29.92,WNW,291,3.0,3.0,89,0.00,,,0.01,Wunderground v.1.15,2013-12-29 14:40:00,
2013-12-29 08:45:00,41.1,38.1,29.92,West,278,2.0,6.0,89,0.00,,,0.01,Wunderground v.1.15,2013-12-29 14:45:00,
2013-12-29 08:51:00,41.5,38.2,29.92,WNW,291,2.0,5.0,88,0.00,,,0.01,Wunderground v.1.15,2013-12-29 14:51:00,
2013-12-29 08:56:00,41.7,38.1,29.92,WNW,294,2.0,6.0,87,0.00,,,0.01,Wunderground v.1.15,2013-12-29 14:56:00,
2013-12-29 09:02:00,41.9,38.0,29.92,West,264,4.0,6.0,86,0.00,,,0.01,Wunderground v.1.15,2013-12-29 15:02:00,
2013-12-29 09:07:00,42.1,38.2,29.92,SW,226,5.0,6.0,86,0.00,,,0.01,Wunderground v.1.15,2013-12-29 15:07:00,
2013-12-29 09:12:00,42.3,38.1,29.92,West,262,5.0,5.0,85,0.00,,,0.01,Wunderground v.1.15,2013-12-29 15:12:00,
2013-12-29 09:17:00,42.5,38.3,29.92,South,178,5.0,5.0,85,0.00,,,0.01,Wunderground v.1.15,2013-12-29 15:17:00,
2013-12-29 09:23:00,42.8,38.3,29.92,WSW,253,4.0,7.0,84,0.00,,,0.01,Wunderground v.1.15,2013-12-29 15:23:00,
2013-12-29 09:28:00,43.1,38.6,29.92,WSW,255,4.0,7.0,84,0.00,,,0.01,Wunderground v.1.15,2013-12-29 15:28:00,
2013-12-29 09:33:00,43.3,38.2,29.92,West,267,5.0,8.0,82,0.00,,,0.01,Wunderground v.1.15,2013-12-29 15:33:00,
2013-12-29 09:38:00,43.5,38.4,29.92,West,267,6.0,9.0,82,0.00,,,0.01,Wunderground v.1.15,2013-12-29 15:38:00,
2013-12-29 09:44:00,43.7,38.6,29.92,West,260,6.0,9.0,82,0.00,,,0.01,Wunderground v.1.15,2013-12-29 15:44:00,
2013-12-29 09:49:00,43.8,38.3,29.92,WNW,293,7.0,10.0,81,0.00,,,0.01,Wunderground v.1.15,2013-12-29 15:49:00,
2013-12-29 09:54:00,44.1,38.6,29.92,WSW,255,7.0,10.0,81,0.00,,,0.01,Wunderground v.1.15,2013-12-29 15:54:00,
2013-12-29 10:00:00,44.3,38.2,29.93,West,276,8.0,14.0,79,0.00,,,0.01,Wunderground v.1.15,2013-12-29 16:00:00,
2013-12-29 10:06:00,44.1,38.0,29.93,WNW,296,10.0,14.0,79,0.00,,,0.01,Wunderground v.1.15,2013-12-29 16:06:00,
2013-12-29 10:11:00,44.1,38.3,29.93,WNW,284,10.0,11.0,80,0.00,,,0.01,Wunderground v.1.15,2013-12-29 16:11:00,
2013-12-29 10:16:00,44.1,37.7,29.93,WNW,289,11.0,16.0,78,0.00,,,0.01,Wunderground v.1.15,2013-12-29 16:16:00,
2013-12-29 10:21:00,43.8,37.7,29.94,WNW,293,13.0,15.0,79,0.00,,,0.01,Wunderground v.1.15,2013-12-29 16:21:00,
2013-12-29 10:26:00,43.8,38.0,29.94,WNW,295,13.0,15.0,80,0.00,,,0.01,Wunderground v.1.15,2013-12-29 16:26:00,
2013-12-29 10:32:00,43.9,38.1,29.94,WNW,295,12.0,12.0,80,0.00,,,0.01,Wunderground v.1.15,2013-12-29 16:32:00,
2013-12-29 10:37:00,43.7,37.9,29.94,WNW,294,12.0,17.0,80,0.00,,,0.01,Wunderground v.1.15,2013-12-29 16:37:00,
2013-12-29 10:42:00,43.7,38.3,29.95,WNW,297,13.0,14.0,81,0.00,,,0.01,Wunderground v.1.15,2013-12-29 16:42:00,
2013-12-29 10:48:00,43.7,37.6,29.95,NNW,333,12.0,15.0,79,0.00,,,0.01,Wunderground v.1.15,2013-12-29 16:48:00,
2013-12-29 10:53:00,42.8,36.7,29.96,NW,305,12.0,16.0,79,0.00,,,0.01,Wunderground v.1.15,2013-12-29 16:53:00,
2013-12-29 10:58:00,42.2,37.1,29.96,NW,304,12.0,16.0,82,0.00,,,0.01,Wunderground v.1.15,2013-12-29 16:58:00,
2013-12-29 11:04:00,41.1,36.0,29.97,WNW,293,12.0,18.0,82,0.00,,,0.01,Wunderground v.1.15,2013-12-29 17:04:00,
2013-12-29 11:09:00,40.0,35.3,29.97,NW,309,13.0,18.0,83,0.00,,,0.01,Wunderground v.1.15,2013-12-29 17:09:00,
2013-12-29 11:14:00,39.1,35.0,29.97,WNW,300,13.0,14.0,85,0.00,,,0.01,Wunderground v.1.15,2013-12-29 17:14:00,
2013-12-29 11:20:00,38.5,34.7,29.97,WNW,298,12.0,12.0,86,0.00,,,0.01,Wunderground v.1.15,2013-12-29 17:20:00,
2013-12-29 11:25:00,38.1,34.6,29.97,WNW,288,12.0,16.0,87,0.00,,,0.01,Wunderground v.1.15,2013-12-29 17:25:00,
2013-12-29 11:30:00,37.7,34.5,29.97,NNW,329,12.0,12.0,88,0.00,,,0.01,Wunderground v.1.15,2013-12-29 17:30:00,
2013-12-29 11:36:00,37.2,34.3,29.97,NW,312,11.0,14.0,89,0.00,,,0.01,Wunderground v.1.15,2013-12-29 17:36:00,
2013-12-29 11:41:00,37.0,34.3,29.97,NW,304,10.0,11.0,90,0.00,,,0.01,Wunderground v.1.15,2013-12-29 17:41:00,
2013-12-29 11:46:00,36.7,34.0,29.97,WNW,302,10.0,15.0,90,0.00,,,0.01,Wunderground v.1.15,2013-12-29 17:46:00,
2013-12-29 11:52:00,36.4,34.0,29.97,NW,311,11.0,11.0,91,0.00,,,0.01,Wunderground v.1.15,2013-12-29 17:52:00,
2013-12-29 11:57:00,36.3,33.9,29.97,NW,310,10.0,11.0,91,0.00,,,0.01,Wunderground v.1.15,2013-12-29 17:57:00,
2013-12-29 12:03:00,36.2,33.8,29.97,NW,323,9.0,9.0,91,0.00,,,0.01,Wunderground v.1.15,2013-12-29 18:03:00,
2013-12-29 12:08:00,36.0,33.6,29.97,NW,314,9.0,13.0,91,0.00,,,0.01,Wunderground v.1.15,2013-12-29 18:08:00,
2013-12-29 12:13:00,35.8,33.4,29.97,WNW,297,10.0,10.0,91,0.00,,,0.01,Wunderground v.1.15,2013-12-29 18:13:00,
2013-12-29 12:19:00,35.6,33.2,29.97,WNW,300,10.0,13.0,91,0.00,,,0.01,Wunderground v.1.15,2013-12-29 18:19:00,
2013-12-29 12:24:00,35.3,32.9,29.97,WNW,299,10.0,16.0,91,0.00,,,0.01,Wunderground v.1.15,2013-12-29 18:24:00,
2013-12-29 12:29:00,34.8,32.4,29.97,NW,304,12.0,17.0,91,0.00,,,0.01,Wunderground v.1.15,2013-12-29 18:29:00,
2013-12-29 12:35:00,34.4,32.3,29.98,NW,325,11.0,13.0,92,0.00,,,0.01,Wunderground v.1.15,2013-12-29 18:35:00,
2013-12-29 12:40:00,33.9,31.6,29.98,NW,316,11.0,16.0,91,0.00,,,0.01,Wunderground v.1.15,2013-12-29 18:40:00,
2013-12-29 12:45:00,33.5,31.2,29.98,NW,306,13.0,17.0,91,0.00,,,0.01,Wunderground v.1.15,2013-12-29 18:45:00,
2013-12-29 12:51:00,33.2,30.6,29.98,WNW,297,12.0,15.0,90,0.00,,,0.01,Wunderground v.1.15,2013-12-29 18:51:00,
2013-12-29 12:56:00,33.2,30.6,29.99,NW,314,11.0,15.0,90,0.00,,,0.01,Wunderground v.1.15,2013-12-29 18:56:00,
2013-12-29 13:02:00,33.0,30.1,29.99,NW,321,11.0,13.0,89,0.00,,,0.01,Wunderground v.1.15,2013-12-29 19:02:00,
2013-12-29 13:07:00,32.8,29.6,29.99,WNW,302,12.0,15.0,88,0.00,,,0.01,Wunderground v.1.15,2013-12-29 19:07:00,
2013-12-29 13:13:00,32.7,29.8,29.99,NW,304,11.0,14.0,89,0.00,,,0.01,Wunderground v.1.15,2013-12-29 19:13:00,
2013-12-29 13:18:00,32.6,29.4,29.99,WNW,302,11.0,14.0,88,0.00,,,0.01,Wunderground v.1.15,2013-12-29 19:18:00,
2013-12-29 13:23:00,32.5,29.6,29.99,NW,312,12.0,14.0,89,0.00,,,0.01,Wunderground v.1.15,2013-12-29 19:23:00,
2013-12-29 13:28:00,32.5,29.6,29.99,WNW,302,11.0,14.0,89,0.00,,,0.01,Wunderground v.1.15,2013-12-29 19:28:00,
2013-12-29 13:34:00,32.3,29.4,30.00,WNW,301,11.0,15.0,89,0.00,,,0.01,Wunderground v.1.15,2013-12-29 19:34:00,
2013-12-29 13:39:00,32.1,29.5,30.00,WNW,291,11.0,15.0,90,0.00,,,0.01,Wunderground v.1.15,2013-12-29 19:39:00,
2013-12-29 13:44:00,32.0,29.4,30.00,WNW,300,10.0,14.0,90,0.00,,,0.01,Wunderground v.1.15,2013-12-29 19:44:00,
2013-12-29 13:50:00,31.9,29.3,30.00,NW,307,10.0,10.0,90,0.00,,,0.01,Wunderground v.1.15,2013-12-29 19:50:00,
2013-12-29 13:55:00,31.8,29.2,30.00,NW,319,10.0,11.0,90,0.00,,,0.01,Wunderground v.1.15,2013-12-29 19:55:00,
2013-12-29 14:00:00,31.6,29.0,30.00,NW,314,11.0,13.0,90,0.00,,,0.01,Wunderground v.1.15,2013-12-29 20:00:00,
2013-12-29 14:06:00,31.6,29.0,30.01,NW,305,10.0,13.0,90,0.00,,,0.01,Wunderground v.1.15,2013-12-29 20:06:00,
2013-12-29 14:11:00,31.5,28.9,30.01,NW,312,9.0,9.0,90,0.00,,,0.01,Wunderground v.1.15,2013-12-29 20:11:00,
2013-12-29 14:16:00,31.5,28.9,30.01,NW,304,9.0,11.0,90,0.00,,,0.01,Wunderground v.1.15,2013-12-29 20:16:00,
2013-12-29 14:21:00,31.3,28.7,30.01,WNW,289,9.0,10.0,90,0.00,,,0.01,Wunderground v.1.15,2013-12-29 20:21:00,
2013-12-29 14:27:00,31.3,28.7,30.02,NW,305,9.0,10.0,90,0.00,,,0.01,Wunderground v.1.15,2013-12-29 20:27:00,
2013-12-29 14:32:00,31.2,28.6,30.02,WNW,300,9.0,11.0,90,0.00,,,0.01,Wunderground v.1.15,2013-12-29 20:32:00,
2013-12-29 14:38:00,31.1,28.5,30.02,NW,316,10.0,13.0,90,0.00,,,0.01,Wunderground v.1.15,2013-12-29 20:38:00,
2013-12-29 14:43:00,31.0,28.4,30.03,WNW,295,10.0,13.0,90,0.00,,,0.01,Wunderground v.1.15,2013-12-29 20:43:00,
2013-12-29 14:48:00,30.9,28.3,30.03,NW,312,10.0,14.0,90,0.00,,,0.01,Wunderground v.1.15,2013-12-29 20:48:00,
2013-12-29 14:54:00,30.8,28.2,30.04,NW,307,11.0,13.0,90,0.00,,,0.01,Wunderground v.1.15,2013-12-29 20:54:00,
2013-12-29 14:59:00,30.8,28.2,30.04,WNW,297,10.0,13.0,90,0.00,,,0.01,Wunderground v.1.15,2013-12-29 20:59:00,
2013-12-29 15:05:00,30.6,28.3,30.05,NW,304,10.0,12.0,91,0.00,,,0.01,Wunderground v.1.15,2013-12-29 21:05:00,
2013-12-29 15:10:00,30.4,28.1,30.05,WNW,300,10.0,13.0,91,0.00,,,0.01,Wunderground v.1.15,2013-12-29 21:10:00,
2013-12-29 15:16:00,30.3,28.0,30.06,WNW,299,9.0,13.0,91,0.00,,,0.01,Wunderground v.1.15,2013-12-29 21:16:00,
2013-12-29 15:21:00,30.2,27.9,30.06,NW,304,9.0,10.0,91,0.00,,,0.01,Wunderground v.1.15,2013-12-29 21:21:00,
2013-12-29 15:27:00,30.1,27.5,30.06,NW,316,10.0,15.0,90,0.00,,,0.01,Wunderground v.1.15,2013-12-29 21:27:00,
2013-12-29 15:32:00,30.0,27.7,30.06,NW,312,11.0,11.0,91,0.00,,,0.01,Wunderground v.1.15,2013-12-29 21:32:00,
2013-12-29 15:37:00,29.9,27.9,30.07,WNW,301,10.0,11.0,92,0.00,,,0.01,Wunderground v.1.15,2013-12-29 21:37:00,
2013-12-29 15:43:00,29.7,27.4,30.07,NW,311,10.0,11.0,91,0.00,,,0.01,Wunderground v.1.15,2013-12-29 21:43:00,
2013-12-29 15:48:00,29.7,27.4,30.08,NW,310,9.0,11.0,91,0.00,,,0.01,Wunderground v.1.15,2013-12-29 21:48:00,
2013-12-29 15:53:00,29.7,27.7,30.08,NW,306,8.0,8.0,92,0.00,,,0.01,Wunderground v.1.15,2013-12-29 21:53:00,
2013-12-29 15:58:00,29.4,27.4,30.08,NW,304,9.0,10.0,92,0.00,,,0.01,Wunderground v.1.15,2013-12-29 21:58:00,
2013-12-29 16:04:00,29.3,27.5,30.08,NW,307,9.0,9.0,93,0.00,,,0.01,Wunderground v.1.15,2013-12-29 22:04:00,
2013-12-29 16:09:00,29.3,27.5,30.09,NW,325,8.0,11.0,93,0.00,,,0.01,Wunderground v.1.15,2013-12-29 22:09:00,
2013-12-29 16:15:00,29.2,27.2,30.09,NW,308,9.0,10.0,92,0.00,,,0.01,Wunderground v.1.15,2013-12-29 22:15:00,
2013-12-29 16:20:00,29.0,27.0,30.10,WNW,287,10.0,10.0,92,0.00,,,0.01,Wunderground v.1.15,2013-12-29 22:20:00,
2013-12-29 16:25:00,28.8,26.8,30.10,WNW,293,10.0,11.0,92,0.00,,,0.01,Wunderground v.1.15,2013-12-29 22:25:00,
2013-12-29 16:30:00,28.7,26.7,30.11,WNW,298,9.0,12.0,92,0.00,,,0.01,Wunderground v.1.15,2013-12-29 22:30:00,
2013-12-29 16:35:00,28.7,26.7,30.11,WNW,295,9.0,12.0,92,0.00,,,0.01,Wunderground v.1.15,2013-12-29 22:35:00,
2013-12-29 16:41:00,28.5,26.5,30.11,WNW,291,9.0,11.0,92,0.00,,,0.01,Wunderground v.1.15,2013-12-29 22:41:00,
2013-12-29 16:46:00,28.4,26.6,30.11,NNW,329,10.0,12.0,93,0.00,,,0.01,Wunderground v.1.15,2013-12-29 22:46:00,
2013-12-29 16:51:00,28.3,26.3,30.11,WNW,290,10.0,13.0,92,0.00,,,0.01,Wunderground v.1.15,2013-12-29 22:51:00,
2013-12-29 16:57:00,28.1,26.1,30.12,NW,314,10.0,13.0,92,0.00,,,0.01,Wunderground v.1.15,2013-12-29 22:57:00,
2013-12-29 17:02:00,28.0,26.0,30.12,NW,304,10.0,12.0,92,0.00,,,0.01,Wunderground v.1.15,2013-12-29 23:02:00,
2013-12-29 17:08:00,27.9,25.9,30.13,WNW,293,10.0,12.0,92,0.00,,,0.01,Wunderground v.1.15,2013-12-29 23:08:00,
2013-12-29 17:13:00,27.9,25.6,30.13,WNW,294,9.0,10.0,91,0.00,,,0.01,Wunderground v.1.15,2013-12-29 23:13:00,
2013-12-29 17:19:00,27.7,25.4,30.13,NW,308,10.0,16.0,91,0.00,,,0.01,Wunderground v.1.15,2013-12-29 23:19:00,
2013-12-29 17:24:00,27.7,25.4,30.13,WNW,302,11.0,14.0,91,0.00,,,0.01,Wunderground v.1.15,2013-12-29 23:24:00,
2013-12-29 17:30:00,27.6,25.3,30.13,NW,308,11.0,11.0,91,0.00,,,0.01,Wunderground v.1.15,2013-12-29 23:30:00,
2013-12-29 17:35:00,27.7,25.2,30.13,NW,305,10.0,12.0,90,0.00,,,0.01,Wunderground v.1.15,2013-12-29 23:35:00,
2013-12-29 17:40:00,27.7,25.4,30.14,WNW,302,9.0,9.0,91,0.00,,,0.01,Wunderground v.1.15,2013-12-29 23:40:00,
2013-12-29 17:45:00,27.8,25.2,30.14,NW,308,7.0,10.0,90,0.00,,,0.01,Wunderground v.1.15,2013-12-29 23:45:00,
2013-12-29 17:51:00,27.7,25.2,30.15,WNW,295,8.0,8.0,90,0.00,,,0.01,Wunderground v.1.15,2013-12-29 23:51:00,
2013-12-29 17:56:00,27.7,25.2,30.15,NW,312,7.0,12.0,90,0.00,,,0.01,Wunderground v.1.15,2013-12-29 23:56:00,
2013-12-29 18:02:00,27.5,25.0,30.15,WNW,300,8.0,15.0,90,0.00,,,0.01,Wunderground v.1.15,2013-12-30 00:02:00,
2013-12-29 18:08:00,27.4,24.6,30.15,NW,309,10.0,15.0,89,0.00,,,0.01,Wunderground v.1.15,2013-12-30 00:08:00,
2013-12-29 18:13:00,27.3,24.8,30.14,NW,308,10.0,11.0,90,0.00,,,0.01,Wunderground v.1.15,2013-12-30 00:13:00,
2013-12-29 18:18:00,27.3,24.5,30.15,NW,304,10.0,13.0,89,0.00,,,0.01,Wunderground v.1.15,2013-12-30 00:18:00,
2013-12-29 18:23:00,27.3,24.8,30.15,WNW,287,11.0,11.0,90,0.00,,,0.01,Wunderground v.1.15,2013-12-30 00:23:00,
2013-12-29 18:29:00,27.3,24.8,30.16,NW,311,10.0,18.0,90,0.00,,,0.01,Wunderground v.1.15,2013-12-30 00:29:00,
2013-12-29 18:34:00,27.2,24.4,30.16,NW,304,10.0,13.0,89,0.00,,,0.01,Wunderground v.1.15,2013-12-30 00:34:00,
2013-12-29 18:39:00,27.2,24.7,30.16,NW,321,10.0,13.0,90,0.00,,,0.01,Wunderground v.1.15,2013-12-30 00:39:00,
2013-12-29 18:45:00,27.2,24.4,30.16,NW,325,9.0,12.0,89,0.00,,,0.01,Wunderground v.1.15,2013-12-30 00:45:00,
2013-12-29 18:50:00,27.1,24.0,30.16,NW,309,10.0,10.0,88,0.00,,,0.01,Wunderground v.1.15,2013-12-30 00:50:00,
2013-12-29 18:55:00,27.1,24.0,30.17,WNW,303,12.0,14.0,88,0.00,,,0.01,Wunderground v.1.15,2013-12-30 00:55:00,
2013-12-29 19:00:00,27.0,23.9,30.17,WNW,295,11.0,11.0,88,0.00,,,0.01,Wunderground v.1.15,2013-12-30 01:00:00,
2013-12-29 19:06:00,27.1,24.0,30.17,NW,307,11.0,15.0,88,0.00,,,0.01,Wunderground v.1.15,2013-12-30 01:06:00,
2013-12-29 19:11:00,27.1,24.0,30.17,WNW,295,11.0,12.0,88,0.00,,,0.01,Wunderground v.1.15,2013-12-30 01:11:00,
2013-12-29 19:16:00,27.0,23.6,30.17,NW,314,10.0,12.0,87,0.00,,,0.01,Wunderground v.1.15,2013-12-30 01:16:00,
2013-12-29 19:22:00,27.1,24.0,30.18,NW,321,8.0,14.0,88,0.00,,,0.01,Wunderground v.1.15,2013-12-30 01:22:00,
2013-12-29 19:28:00,27.0,23.6,30.18,NW,311,9.0,14.0,87,0.00,,,0.01,Wunderground v.1.15,2013-12-30 01:28:00,
2013-12-29 19:33:00,27.0,23.6,30.18,NW,314,10.0,11.0,87,0.00,,,0.01,Wunderground v.1.15,2013-12-30 01:33:00,
2013-12-29 19:37:00,26.9,23.5,30.18,NW,316,10.0,15.0,87,0.00,,,0.01,Wunderground v.1.15,2013-12-30 01:37:00,
2013-12-29 19:42:00,26.9,23.5,30.18,West,281,10.0,11.0,87,0.00,,,0.01,Wunderground v.1.15,2013-12-30 01:42:00,
2013-12-29 19:48:00,27.0,23.6,30.18,NW,304,9.0,11.0,87,0.00,,,0.01,Wunderground v.1.15,2013-12-30 01:48:00,
2013-12-29 19:53:00,26.9,23.5,30.18,WNW,293,8.0,12.0,87,0.00,,,0.01,Wunderground v.1.15,2013-12-30 01:53:00,
2013-12-29 19:58:00,26.8,23.2,30.19,NW,305,8.0,12.0,86,0.00,,,0.01,Wunderground v.1.15,2013-12-30 01:58:00,
2013-12-29 20:04:00,26.7,23.1,30.18,NW,304,10.0,12.0,86,0.00,,,0.01,Wunderground v.1.15,2013-12-30 02:04:00,
2013-12-29 20:09:00,26.7,23.1,30.19,NW,318,10.0,13.0,86,0.00,,,0.01,Wunderground v.1.15,2013-12-30 02:09:00,
2013-12-29 20:15:00,26.7,22.8,30.19,WNW,300,10.0,10.0,85,0.00,,,0.01,Wunderground v.1.15,2013-12-30 02:15:00,
2013-12-29 20:20:00,26.7,23.1,30.19,NW,320,10.0,10.0,86,0.00,,,0.01,Wunderground v.1.15,2013-12-30 02:20:00,
2013-12-29 20:25:00,26.7,23.1,30.20,NW,308,9.0,10.0,86,0.00,,,0.01,Wunderground v.1.15,2013-12-30 02:25:00,
2013-12-29 20:31:00,26.7,23.1,30.20,WNW,300,8.0,9.0,86,0.00,,,0.01,Wunderground v.1.15,2013-12-30 02:31:00,
2013-12-29 20:36:00,26.6,22.7,30.20,NW,308,9.0,11.0,85,0.00,,,0.01,Wunderground v.1.15,2013-12-30 02:36:00,
2013-12-29 20:41:00,26.6,22.7,30.20,NW,304,9.0,11.0,85,0.00,,,0.01,Wunderground v.1.15,2013-12-30 02:41:00,
2013-12-29 20:47:00,26.5,22.9,30.20,NW,304,9.0,11.0,86,0.00,,,0.01,Wunderground v.1.15,2013-12-30 02:47:00,
2013-12-29 20:52:00,26.5,22.6,30.20,NW,309,8.0,10.0,85,0.00,,,0.01,Wunderground v.1.15,2013-12-30 02:52:00,
2013-12-29 20:57:00,26.3,22.7,30.20,NW,304,8.0,10.0,86,0.00,,,0.01,Wunderground v.1.15,2013-12-30 02:57:00,
2013-12-29 21:03:00,26.3,22.7,30.20,NW,306,8.0,11.0,86,0.00,,,0.01,Wunderground v.1.15,2013-12-30 03:03:00,
2013-12-29 21:09:00,26.3,22.7,30.20,NW,312,8.0,11.0,86,0.00,,,0.01,Wunderground v.1.15,2013-12-30 03:09:00,
2013-12-29 21:14:00,26.2,22.6,30.20,NW,307,8.0,9.0,86,0.00,,,0.01,Wunderground v.1.15,2013-12-30 03:14:00,
2013-12-29 21:20:00,26.2,22.3,30.20,WNW,303,9.0,9.0,85,0.00,,,0.01,Wunderground v.1.15,2013-12-30 03:20:00,
2013-12-29 21:25:00,26.1,22.5,30.20,WNW,293,10.0,11.0,86,0.00,,,0.01,Wunderground v.1.15,2013-12-30 03:25:00,
2013-12-29 21:31:00,26.1,22.8,30.20,WNW,293,9.0,9.0,87,0.00,,,0.01,Wunderground v.1.15,2013-12-30 03:31:00,
2013-12-29 21:36:00,26.1,22.5,30.21,NW,308,7.0,11.0,86,0.00,,,0.01,Wunderground v.1.15,2013-12-30 03:36:00,
2013-12-29 21:41:00,25.8,21.9,30.20,WNW,287,9.0,9.0,85,0.00,,,0.01,Wunderground v.1.15,2013-12-30 03:41:00,
2013-12-29 21:47:00,25.7,21.8,30.21,NW,304,9.0,11.0,85,0.00,,,0.01,Wunderground v.1.15,2013-12-30 03:47:00,
2013-12-29 21:52:00,25.7,21.8,30.21,NW,315,8.0,10.0,85,0.00,,,0.01,Wunderground v.1.15,2013-12-30 03:52:00,
2013-12-29 21:58:00,25.6,21.7,30.21,NW,304,7.0,10.0,85,0.00,,,0.01,Wunderground v.1.15,2013-12-30 03:58:00,
2013-12-29 22:03:00,25.7,22.1,30.21,NW,308,7.0,9.0,86,0.00,,,0.01,Wunderground v.1.15,2013-12-30 04:03:00,
2013-12-29 22:09:00,25.6,21.7,30.21,NW,304,8.0,13.0,85,0.00,,,0.01,Wunderground v.1.15,2013-12-30 04:09:00,
2013-12-29 22:14:00,25.4,21.5,30.21,NW,304,9.0,11.0,85,0.00,,,0.01,Wunderground v.1.15,2013-12-30 04:14:00,
2013-12-29 22:19:00,25.4,21.2,30.21,NW,304,9.0,11.0,84,0.00,,,0.01,Wunderground v.1.15,2013-12-30 04:19:00,
2013-12-29 22:25:00,25.4,21.5,30.21,WNW,299,9.0,11.0,85,0.00,,,0.01,Wunderground v.1.15,2013-12-30 04:25:00,
2013-12-29 22:30:00,25.4,21.5,30.22,WNW,297,9.0,10.0,85,0.00,,,0.01,Wunderground v.1.15,2013-12-30 04:30:00,
2013-12-29 22:35:00,25.3,21.4,30.22,NW,307,9.0,12.0,85,0.00,,,0.01,Wunderground v.1.15,2013-12-30 04:35:00,
2013-12-29 22:40:00,25.2,21.3,30.22,WNW,302,9.0,9.0,85,0.00,,,0.01,Wunderground v.1.15,2013-12-30 04:40:00,
2013-12-29 22:46:00,25.0,20.8,30.22,NW,325,9.0,13.0,84,0.00,,,0.01,Wunderground v.1.15,2013-12-30 04:46:00,
2013-12-29 22:51:00,25.0,20.8,30.23,NW,314,9.0,9.0,84,0.00,,,0.01,Wunderground v.1.15,2013-12-30 04:51:00,
2013-12-29 22:56:00,25.0,21.1,30.23,NW,304,8.0,9.0,85,0.00,,,0.01,Wunderground v.1.15,2013-12-30 04:56:00,
2013-12-29 23:01:00,25.0,21.1,30.23,NW,312,8.0,10.0,85,0.00,,,0.01,Wunderground v.1.15,2013-12-30 05:01:00,
2013-12-29 23:02:00,24.9,21.0,30.23,NW,312,8.0,10.0,85,0.00,,,0.01,Wunderground v.1.15,2013-12-30 05:02:00,
2013-12-29 23:03:00,24.9,21.0,30.23,NW,305,8.0,10.0,85,0.00,,,0.01,Wunderground v.1.15,2013-12-30 05:03:00,
2013-12-29 23:05:00,25.0,21.4,30.23,NW,311,7.0,10.0,86,0.00,,,0.01,Wunderground v.1.15,2013-12-30 05:05:00,
2013-12-29 23:08:00,24.9,21.0,30.23,NNW,330,7.0,10.0,85,0.00,,,0.01,Wunderground v.1.15,2013-12-30 05:08:00,
2013-12-29 23:09:00,24.9,21.0,30.23,WNW,299,7.0,10.0,85,0.00,,,0.01,Wunderground v.1.15,2013-12-30 05:09:00,
2013-12-29 23:14:00,24.8,20.9,30.23,NW,315,8.0,12.0,85,0.00,,,0.01,Wunderground v.1.15,2013-12-30 05:14:00,
2013-12-29 23:19:00,24.7,20.8,30.23,NNW,329,8.0,12.0,85,0.00,,,0.01,Wunderground v.1.15,2013-12-30 05:19:00,
2013-12-29 23:25:00,24.6,21.0,30.23,WNW,302,8.0,10.0,86,0.00,,,0.01,Wunderground v.1.15,2013-12-30 05:25:00,
2013-12-29 23:30:00,24.5,20.9,30.23,NW,305,8.0,10.0,86,0.00,,,0.01,Wunderground v.1.15,2013-12-30 05:30:00,
2013-12-29 23:35:00,24.4,20.8,30.23,NW,307,9.0,11.0,86,0.00,,,0.01,Wunderground v.1.15,2013-12-30 05:35:00,
2013-12-29 23:40:00,24.3,20.7,30.23,WNW,298,10.0,10.0,86,0.00,,,0.01,Wunderground v.1.15,2013-12-30 05:40:00,
2013-12-29 23:46:00,24.2,20.9,30.24,WNW,298,9.0,11.0,87,0.00,,,0.01,Wunderground v.1.15,2013-12-30 05:46:00,
2013-12-29 23:51:00,24.0,20.7,30.24,WNW,297,7.0,8.0,87,0.00,,,0.01,Wunderground v.1.15,2013-12-30 05:51:00,
2013-12-29 23:56:00,24.0,20.7,30.24,WNW,298,7.0,11.0,87,0.00,,,0.01,Wunderground v.1.15,2013-12-30 05:56:00,